Volver al catálogo

DMSP 5D-2 F13 DEB

ActivoPO
NORAD 42297·DEBRIS·🇺🇸 United States

Lanzado Mar 24, 1995 desde Vandenberg Space Force Base

Loading…

Próximos Pases (próximas 24 horas)

TLE

ActualizadoSource: Space-Track

Época: Sep 13, 2026, 06:39 UTC

1 42297U 95015HP  26256.27740981  .00006117  00000-0  16706-2 0  9990
2 42297  98.8593 267.2252 0027752  40.4450 319.8798 14.47438320568587

Sigue DMSP 5D-2 F13 DEB en tiempo real con AllMySat

Download on the App Store